Regional Weather Roundup
Issued by NWS Pendleton, OR

Home | Current Version | Previous Version | Text Only | Print | Product List | Glossary On
Versions: 1 2 3 4 5 6 7 8 9 10 11 12 13 14 15 16 17 18 19 20 21 22 23 24 25 26 27 28 29 30 31 32 33 34 35 36 37 38 39 40 41 42 43 44 45 46 47 48 49 50
000
ASUS46 KPDT 200510
RWRPDT
PENDLETON REGIONAL WEATHER ROUNDUP
NATIONAL WEATHER SERVICE PENDLETON OREGON
1000 PM PDT THU APR 19 2018

NOTE: FAIR INDICATES FEW OR NO CLOUDS BELOW 12,000 FEET WITH NO
SIGNIFICANT WEATHER AND/OR OBSTRUCTIONS TO VISIBILITY.

# INDICATES UNOFFICIAL STATION AND DATA

WAZ520-200610-
EAST SLOPES OF WASHINGTON CASCADES

CITY            SKY/WX      TMP DP  RH  WIND    PRES   REMARKS
#BULLFROG       N/A         42  36  79  CALM    N/A
#CLE ELUM HS    N/A         45  34  65  CALM    30.15R
#EASTON DOT     N/A         40  35  82  CALM    N/A
#ELK HTS DOT    N/A         47  46  96  W5      N/A
#GLENWOOD       N/A         45  35  68  S1      30.20R
#NELSON 3SW     N/A         43  33  67  CALM    30.44R
#NILE           N/A         47  35  63  CALM    29.54R
#TEANAWAY 4NE   N/A         45  35  68  W2      N/A
#TROUT LAKE 1NE N/A         43  35  73  CALM    30.23R
#TROUT LAKE 1E  N/A         41  34  76  CALM    30.23R
$$

WAZ521-200610-
SIMCOE HIGHLANDS

CITY            SKY/WX      TMP DP  RH  WIND    PRES   REMARKS
#BICKLETON HS   N/A         48  32  54  N12     29.82R WCI 43
#SATUS PASS DOT N/A         44  23  43  CALM    N/A
#CENTERVILLE 1SWN/A         49  33  54  CALM    30.16R
#GOLDENDALE 1NE N/A         47  17  30  CALM    N/A
#GOLDENDALE 4W  N/A         47  27  45  N6      30.22R
#GOODNOE HILLS  N/A         52  35  52  W9      30.09R
#LYLE 6NE       N/A         52  33  48  SW7     30.22R
#PITT 4SE       N/A         45  31  58  CALM    30.24R
$$

WAZ026-200610-
KITTITAS VALLEY

CITY            SKY/WX      TMP DP  RH  WIND    PRES   REMARKS
ELLENSBURG AP   CLEAR       45  34  65  NW9     30.19R
#ELLENSBURG CWU N/A         49  35  58  NW8     30.13R
#ELLENSBURG 3NE N/A         45  35  68  CALM    28.25R
#ELLENSBURG 1E  N/A         50  36  58  NW2     30.24R
#KITTITAS 3S    N/A         49  37  63  W6      30.18R
#MANASTASH RDG  N/A         46  46  100 N9G24   N/A
#ROCKY CYN DOT  N/A         48  35  60  W14     N/A    WCI 42
#RYEGRASS DOT   N/A         46  30  53  CALM    N/A
$$

WAZ027-200610-
YAKIMA VALLEY

CITY            SKY/WX      TMP DP  RH  WIND    PRES   REMARKS
YAKIMA AIRPORT  CLEAR       56  36  47  N5      30.18R
YAKIMA-VAGABOND CLEAR       49  34  56  E7      30.17R
#DONALD 2NE     N/A         54   8  15  N13     29.01R
#GRANDVIEW      N/A         55  35  47  CALM    30.16R
#MABTON         N/A         56  39  53  S2      30.14R
#MOXEE 2E       N/A         37  N/A N/A SW12    29.79S WCI 29
#NACHES 2SW     N/A         51  37  59  W12     30.16R
#OUTLOOK DOT    N/A         52  39  61  NW2     30.12R
#PARKER DOT     N/A         55  34  45  S8      30.15R
#TERRACE HTS    N/A         52  36  54  N2      30.13R
#TOPPENISH      N/A         56  37  49  CALM    30.09R
#I82 S UMTANUM RN/A         49  30  48  N13     N/A    WCI 44
#UNION GAP DOT  N/A         54  34  47  CALM    30.20R
#W YAKIMA       N/A         52  36  54  N3      30.18R
#WHITE SWAN 5E  N/A         57  34  42  CALM    30.17R
#WILEY CITY 3W  N/A         53  29  39  CALM    30.14R
#ZILLAH DOT     N/A         57  34  42  N9      N/A
$$

WAZ028-200610-
LOWER COLUMBIA BASIN...WASHINGTON

CITY            SKY/WX      TMP DP  RH  WIND    PRES   REMARKS
PASCO           CLEAR       56  36  47  SE3     30.16R
PROSSER AWOS    N/A         59  36  42  S10     30.18R
RICHLAND AWOS   CLEAR       53  38  57  CALM    30.16R
#BASIN CITY 5SW N/A         56  38  51  SW2     30.14R
#BENTON CITY    N/A         58  36  44  CALM    30.05R
#CONNELL 5N     N/A         49  35  58  CALM    30.15R
#CONNELL 5NW    N/A         52  34  50  S1      30.10R
#ELTOPIA 6NW    N/A         56  38  51  CALM    29.12R
#KAHLOTUS       N/A         53  33  46  CALM    30.14S
#KENNEWICK 3S   N/A         54  36  50  S3      30.15S
#PROSSER DOT    N/A         60  34  37  S12     30.15R
#SAGEMOOR 2W    N/A         54  37  52  W5      30.01R
#TOUCHET 2S     N/A         49  37  63  CALM    30.14R
$$

WAZ029-200610-
FOOTHILLS OF THE BLUES...WASHINGTON

CITY            SKY/WX      TMP DP  RH  WIND    PRES   REMARKS
WALLA WALLA AP  CLEAR       51  37  59  E8      30.16R
#CLYDE 6NW      N/A         42  33  70  CALM    30.14R
#DELANEY DOT    N/A         50  34  54  E5      30.17R
#LOWDEN 2SE     N/A         45  39  79  E2      30.13R
#PLEASANT VIEW 1N/A         51  33  50  SW1     30.19R
#PRESCOTT       N/A         44  37  76  CALM    30.14R
#WHITMAN COLLEGEN/A         53  38  57  E2      30.21R
#WAITSBURG 5S   N/A         46  34  63  CALM    30.26R
#WAITSBURG 6SSE N/A         46  34  63  E3      30.02R
#WAITSBURG 8N   N/A          0  N/A N/A CALM    29.94R
#WALLA WALLA 5E N/A         48  39  71  NE5     N/A
#WHITMAN MISSIONN/A         48  40  74  E2      30.17R
$$

WAZ030-200610-
BLUE MOUNTAINS...WASHINGTON

CITY            SKY/WX      TMP DP  RH  WIND    PRES   REMARKS
#DIXIE 5SE      N/A         49  32  52  SW1     30.09S
$$

ORZ009-041-WAZ024-200610-
COLUMBIA RIVER GORGE

CITY            SKY/WX      TMP DP  RH  WIND    PRES   REMARKS
HOOD RIVER AP   CLEAR       50  34  54  S7      30.22R
THE DALLES AP   CLEAR       54  29  38  NW7     30.19R
#ARLINGTON AIRPON/A         54  39  57  W8      30.18R
#CELILO DOT     N/A         59  28  30  SW6     N/A
#LYLE           N/A         58  34  40  N3      30.22R
#MARYHILL       N/A         55  29  37  N18     30.04R
#MURDOCK        N/A         57  36  45  W3      30.15R
#RUFUS DOT      N/A         62  N/A N/A W12     N/A

$$

ORZ510-200610-
NORTH CENTRAL OREGON

CITY            SKY/WX      TMP DP  RH  WIND    PRES   REMARKS
#ANTELOPE       N/A         43  34  70  CALM    30.11R
#CHENOWITH 1W   N/A         51  28  41  W16     N/A
#COW CYN RST AREN/A         47  N/A N/A W3      N/A
#DUFUR          N/A         50  29  44  W1      30.17R
#DUFUR 9E       N/A         50  28  42  W7      30.26R
#GRASS VALLEY 1SN/A         47  32  56  NW8     30.20R
#KENT DOT       N/A         45  24  43  NW5     N/A
#MAUPIN SCHOOL  N/A         54  38  55  CALM    30.25R
#SHANIKO 5WSW   N/A         45  33  63  N8      N/A
#SHANIKO 4NW    N/A         45  31  58  NW6     30.20R
#TYGH VALLEY 2NEN/A         52  34  50  CALM    30.20R
#WAPANITIA AIRPON/A         47  32  56  W1      30.22R
#WASCO DOT      N/A         48  36  63  SW3     N/A
#WASCO 5NE      N/A         49  36  61  N2      30.17S
$$

ORZ511-200610-
CENTRAL OREGON

CITY            SKY/WX      TMP DP  RH  WIND    PRES   REMARKS
BEND AIRPORT    MOCLDY      46  30  53  NW6     30.23R
MADRAS AIRPORT  CLEAR       45  34  65  NW6     30.23R
PRINEVILLE AP   CLEAR       43  32  65  N7      30.22R
REDMOND AIRPORT MOCLDY      48  33  56  NW5     30.21R
#ASHWOOD SCHOOL N/A         46  36  68  S1      30.16R
#BEND 1SW       N/A         40  31  70  CALM    N/A
#BEND-AWBREY    N/A         45  34  65  CALM    30.23R
#BEND-KIM LN    N/A         42  34  73  CALM    30.17R
#CULVER         N/A         45  35  68  CALM    30.05R
#CULVER 8W      N/A         46  36  68  CALM    30.21R
#LAKE BILLY CHINN/A         49  N/A N/A N1      30.27R
#POWELL BUTTE   N/A         45  32  60  E1      30.15R
#PRINEVILLE     N/A         39  31  73  CALM    30.30R
#PRINEVILLE 3N  N/A         42  34  73  NW3     30.21R

$$


ORZ509-200610-
EAST SLOPES OF OREGON CASCADES

CITY            SKY/WX      TMP DP  RH  WIND    PRES   REMARKS
SISTERS AWOS    N/A         46  36  68  CALM    30.17R
#BLUE BOX PASS  N/A         38  N/A N/A CALM    N/A
#CAMP SHERMAN   N/A         39  32  76  CALM    30.28R
#LA PINE 4NW    N/A         36  30  79  CALM    30.27R
#LAVA BUTTE DOT N/A         36  25  64  CALM    N/A
#SISTERS ODOT   N/A         42  33  70  CALM    N/A
#SISTERS 3N     N/A         42  29  60  CALM    30.20S
#SUNRIVER       N/A         38  30  73  CALM    30.25R
#TUMALO 3W      N/A         44  33  65  NW5     30.11R
#WANOGA BUTTE D N/A         33  N/A N/A CALM    N/A

$$

ORZ044-200610-
LOWER COLUMBIA BASIN...OREGON

CITY            SKY/WX      TMP DP  RH  WIND    PRES   REMARKS
HERMISTON       CLEAR       50  37  61  S8      30.16R
#BOARDMAN SCHOOLN/A         54  38  55  S2      30.14R
#BOARDMAN 8SW   N/A         51  40  66  S6      30.16R
#ECHO 8SW       N/A         46  38  73  CALM    30.18R
#I-84 EX 198 DOTN/A         52  30  43  NE6     N/A
#IONE SCHOOL    N/A         46  32  58  CALM    30.20R
#UMATILLA       N/A         53  37  54  CALM    30.09R
$$

ORZ507-200610-
NORTHERN FOOTHILLS OF THE BLUES

CITY            SKY/WX      TMP DP  RH  WIND    PRES   REMARKS
PENDLETON AIRPT CLEAR       49  32  52  S6      30.17R
#ADAMS 3WNW     N/A         42  35  76  CALM    30.17R
#ATHENA         N/A         42  36  79  CALM    30.21R
#CAYUSE         N/A         48  37  65  E6      30.16S
#HELIX SCHOOL   N/A         40  34  79  N1      30.18R
#HELIX 3N       N/A         46  32  58  CALM    30.17R
#HOLDMAN 5SE    N/A         41  36  82  CALM    30.16R
#HOLDMAN 6E     N/A         50  34  54  CALM    29.99R
#M-F GROVE ELEM N/A         49  34  56  CALM    30.13R
#M-FREEWATER 5SEN/A         48  38  68  W3      30.16R
#PENDLETON DNTN N/A         49  29  46  NE2     N/A
#PDT AQUATIC CTRN/A         48  29  47  CALM    30.16R
#PDT SUNRIDGE   N/A         43  36  76  CALM    30.19R
#PENDLETON 6SE  N/A         45  36  70  SE8     30.14R
#PENDLETON 7NW  N/A         42  34  73  CALM    27.38S
#PILOT ROCK 1S  N/A         42  29  60  CALM    30.19R
#PILOT ROCK     N/A         45  33  63  CALM    30.19R
#TUTUILLA       N/A         40  33  76  CALM    30.21R
#UMAPINE 2E     N/A         46  39  76  CALM    30.13R

$$

ORZ508-200610-
SOUTHERN FOOTHILLS OF THE BLUES

CITY            SKY/WX      TMP DP  RH  WIND    PRES   REMARKS
#AJAX           N/A         51  27  39  CALM    30.32S
#CONDON 5W      N/A         44  33  65  CALM    30.17R
#FOSSIL SCHOOL  N/A         42  34  73  CALM    30.13R
#HEPPNER EOC    N/A         46  33  60  E8      30.14R
#HEPPNER 4NE    N/A         42  32  67  E1      30.21R
#LEXINGTON 2SE  N/A         49  35  58  SE6     30.16R
#MIKKALO        N/A         48  33  56  W2      30.29R
#OLEX 4N        N/A         51  38  61  SW8     30.15R
#RUGGS 2SW      N/A         45  32  60  S7      30.23R

$$

ORZ502-503-200610-
BLUE MOUNTAINS

CITY            SKY/WX      TMP DP  RH  WIND    PRES   REMARKS
MEACHAM         CLEAR       35  29  78  CALM    30.19R
#BATTLE MTN DOT N/A         39  23  52  CALM    N/A
#GRANITE        N/A         36  23  59  NE1     29.85R
#HEPPNER 15SE   N/A         33  28  82  CALM    25.70R
#LADD CYN SMT   N/A         44  30  58  NW8     N/A
#LADD CREEK ODOTN/A         48  31  51  SW2     N/A
#N POWDER DOT   N/A         46  31  56  NW12    N/A    WCI 40
#PIKES PEAK     N/A         49  28  44  W3      27.99S
#SUMMERVILLE 5NWN/A         46  32  58  N9      26.80R
#TOLLGATE       N/A         36  29  75  CALM    30.20R
#TROY SCHOOL    N/A         47  38  71  CALM    30.01R
#UKIAH          N/A         35  30  82  CALM    30.15R
#WESTON 4E      N/A         46  29  51  CALM    30.17R
$$

ORZ505-200610-
JOHN DAY BASIN

CITY            SKY/WX      TMP DP  RH  WIND    PRES   REMARKS
JOHN DAY        CLEAR       46  28  49  N7      30.20R
#ANTELOPE 9ESE  N/A         48  36  63  CALM    N/A
#MITCHELL 8NW   N/A         46  27  47  CALM    30.27R
#MONUMENT HS    N/A         47  33  58  CALM    30.14R
#MT. VERNON 5SE N/A         42  28  57  CALM    30.13R
$$

ORZ506-200610-
OCHOCO AND JOHN DAY HIGHLANDS

CITY            SKY/WX      TMP DP  RH  WIND    PRES   REMARKS
#HORSE RIDGE DO N/A         37  27  67  CALM    N/A
#KEYES SMT DOT  N/A         41  26  55  N3      N/A
#PAULINA ODOT   N/A         45  27  49  NW3     N/A
#PINE MTN OBS   N/A         34  27  75  NW1     N/A
#PRAIRIE CITY   N/A         45  28  51  CALM    30.32R
#SENECA         N/A         38  N/A N/A CALM    N/A
#SENECA 9NW     N/A         38  26  62  S1      30.17R
$$

ORZ049-200610-
GRANDE RONDE VALLEY

CITY            SKY/WX      TMP DP  RH  WIND    PRES   REMARKS
LA GRANDE       CLEAR       46  32  58  NW9     30.18R
#COVE SCHOOL    N/A         49  35  58  NW2     30.15R
#COVE 6NW       N/A         44  34  68  NW3     30.17R
#ELGIN 3N       N/A         41  30  65  CALM    30.14R
#ELGIN 1E       N/A         46  33  60  CALM    N/A
#IMBLER SCHOOL  N/A         46  32  58  CALM    30.13R
#ISLAND CITY 4N N/A         50  35  56  CALM    30.25R
#LADD CYN DOT   N/A         48  33  56  CALM    N/A
#UNION 1S       N/A         47  34  60  CALM    30.16R
$$

ORZ050-200610-
WALLOWA COUNTY

CITY            SKY/WX      TMP DP  RH  WIND    PRES   REMARKS
#ENTERPRISE HS  N/A         40  30  67  CALM    30.06R
#IMNAHA SCHOOL  N/A         46  35  65  W1      30.15R
#IMNAHA 10S     N/A         44  30  58  SW2     30.14R
#JOSEPH         N/A         38  25  59  CALM    30.35R
#JOSEPH 3N      N/A         35  22  59  CALM    30.19R
#JOSEPH 3W      N/A         37  31  79  SW5     30.01R
#LOSTINE        N/A         40  31  70  CALM    29.98R
#LOSTINE 3SE    N/A         37  28  70  CALM    30.23S
#MT HOWARD 8000 N/A         30  25  81  N2      30.15S
#PROMISE 1S     N/A         44  31  60  CALM    30.25R
#WALLOWA LAKE   N/A         38  29  70  CALM    30.21R
#WALLOWA SCHOOL N/A         41  32  70  CALM    30.13R



$$



USA.gov is the U.S. government's official web portal to all federal, state and local government web resources and services.